TimeCDT,TemperatureF,Dew PointF,Humidity,Sea Level PressureIn,VisibilityMPH,Wind Direction,Wind SpeedMPH,Gust SpeedMPH,PrecipitationIn,Events,Conditions,WindDirDegrees,DateUTC
12:53 AM,68.0,59.0,73,29.81,10.0,SSE,8.1,-,N/A,,Overcast,160,2013-03-18 05:53:00
1:22 AM,66.2,59.0,78,29.80,10.0,South,8.1,-,0.00,,Overcast,170,2013-03-18 06:22:00
1:36 AM,66.2,59.0,78,29.80,10.0,SSE,9.2,-,0.00,,Overcast,160,2013-03-18 06:36:00
1:53 AM,66.0,59.0,78,29.82,10.0,South,6.9,-,0.00,,Overcast,170,2013-03-18 06:53:00
2:19 AM,64.4,60.8,88,29.80,10.0,South,6.9,-,0.00,Rain,Light Rain,180,2013-03-18 07:19:00
2:53 AM,64.9,61.0,87,29.81,10.0,SSE,4.6,-,0.00,,Overcast,160,2013-03-18 07:53:00
3:20 AM,64.4,60.8,88,29.78,10.0,South,6.9,-,N/A,,Overcast,170,2013-03-18 08:20:00
3:53 AM,64.0,61.0,90,29.80,8.0,South,4.6,-,N/A,,Scattered Clouds,180,2013-03-18 08:53:00
4:53 AM,64.9,63.0,93,29.80,6.0,South,4.6,-,N/A,,Overcast,190,2013-03-18 09:53:00
5:05 AM,64.4,62.6,94,29.78,6.0,South,6.9,-,N/A,,Overcast,170,2013-03-18 10:05:00
5:38 AM,66.2,62.6,88,29.79,6.0,South,3.5,-,N/A,,Overcast,190,2013-03-18 10:38:00
6:45 AM,64.4,62.6,94,29.80,6.0,South,6.9,-,N/A,,Mostly Cloudy,180,2013-03-18 11:45:00
6:53 AM,64.9,63.0,93,29.81,5.0,South,9.2,-,N/A,,Mostly Cloudy,180,2013-03-18 11:53:00
7:41 AM,66.2,64.4,94,29.81,5.0,SSW,4.6,-,N/A,,Overcast,200,2013-03-18 12:41:00
7:53 AM,66.9,64.0,90,29.83,5.0,SSW,4.6,-,N/A,,Overcast,210,2013-03-18 12:53:00
8:53 AM,69.1,64.9,87,29.84,7.0,SSW,6.9,-,N/A,,Overcast,210,2013-03-18 13:53:00
9:01 AM,69.8,64.4,83,29.83,7.0,SSW,6.9,-,N/A,,Overcast,210,2013-03-18 14:01:00
9:53 AM,71.1,64.9,81,29.85,8.0,SSW,8.1,-,N/A,,Overcast,210,2013-03-18 14:53:00
10:31 AM,73.4,64.4,73,29.82,9.0,SSW,11.5,20.7,N/A,,Overcast,210,2013-03-18 15:31:00
10:53 AM,73.9,64.0,71,29.83,8.0,SSW,12.7,26.5,N/A,,Overcast,200,2013-03-18 15:53:00
11:53 AM,78.1,63.0,60,29.82,10.0,SSW,16.1,28.8,N/A,,Mostly Cloudy,210,2013-03-18 16:53:00
12:53 PM,81.0,64.0,56,29.80,10.0,SSW,15.0,19.6,N/A,,Scattered Clouds,210,2013-03-18 17:53:00
1:53 PM,81.0,62.1,52,29.80,10.0,West,10.4,18.4,N/A,,Mostly Cloudy,260,2013-03-18 18:53:00
2:53 PM,84.0,62.1,47,29.75,10.0,SW,16.1,24.2,N/A,Thunderstorm,Mostly Cloudy,220,2013-03-18 19:53:00
3:53 PM,69.1,60.1,73,29.79,10.0,ENE,9.2,19.6,0.00,Thunderstorm,Thunderstorm,70,2013-03-18 20:53:00
4:20 PM,68.0,60.8,78,29.77,10.0,NE,9.2,-,N/A,,Overcast,50,2013-03-18 21:20:00
4:53 PM,71.1,61.0,70,29.80,10.0,NNW,10.4,-,N/A,,Scattered Clouds,340,2013-03-18 21:53:00
5:53 PM,69.1,60.1,73,29.82,10.0,North,10.4,-,N/A,,Overcast,360,2013-03-18 22:53:00
6:40 PM,66.2,57.2,73,29.81,10.0,North,10.4,-,N/A,,Mostly Cloudy,360,2013-03-18 23:40:00
6:48 PM,66.2,57.2,73,29.82,10.0,North,10.4,-,N/A,Thunderstorm,Mostly Cloudy,350,2013-03-18 23:48:00
6:53 PM,66.0,57.0,73,29.84,10.0,North,11.5,-,N/A,Thunderstorm,Mostly Cloudy,360,2013-03-18 23:53:00
7:03 PM,66.2,57.2,73,29.82,10.0,North,12.7,-,N/A,,Mostly Cloudy,360,2013-03-19 00:03:00
7:53 PM,64.0,55.9,75,29.88,10.0,North,15.0,20.7,N/A,,Mostly Cloudy,350,2013-03-19 00:53:00
8:53 PM,60.1,53.1,78,29.94,10.0,North,12.7,-,N/A,,Mostly Cloudy,10,2013-03-19 01:53:00
9:53 PM,57.0,51.1,81,29.99,10.0,NNE,11.5,21.9,N/A,,Mostly Cloudy,20,2013-03-19 02:53:00
10:00 PM,57.2,50.0,77,29.97,10.0,North,19.6,23.0,N/A,,Partly Cloudy,10,2013-03-19 03:00:00
10:53 PM,55.0,48.0,77,30.03,10.0,NNE,10.4,18.4,N/A,,Clear,20,2013-03-19 03:53:00
11:53 PM,53.1,46.9,80,30.04,10.0,NNE,8.1,-,N/A,,Clear,20,2013-03-19 04:53:00